CW2074 Weather Reports


Display with metric or nautical units.
time (UTC)temp
F
wind
direction
speed
MPH
gust
MPH
rain 1hr
in
rain 24hr
in
rain mn
in
humidity
%
barometer
mb
20181022230206 58 115 0.0 0.0 0.00 0.00 0.00 59 1023.7
20181022224526 59 115 0.0 0.0 0.00 0.00 0.00 55 1023.6
20181022223014 61 115 0.0 0.0 0.00 0.00 0.00 53 1023.5
20181022220040 63 115 0.0 0.0 0.00 0.00 0.00 48 1023.5
20181022214550 64 115 0.0 0.0 0.00 0.00 0.00 43 1023.5
20181022213135 65 162 0.0 1.0 0.00 0.00 0.00 42 1023.6
20181022211528 65 91 0.0 5.0 0.00 0.00 0.00 37 1023.6
20181022210012 65 165 0.0 2.0 0.00 0.00 0.00 39 1023.6
20181022204607 66 163 0.0 1.0 0.00 0.00 0.00 37 1023.8
20181022203059 66 177 0.0 1.0 0.00 0.00 0.00 36 1024.0
20181022201528 66 77 0.0 3.0 0.00 0.00 0.00 33 1024.0
20181022200018 66 84 0.0 1.0 0.00 0.00 0.00 37 1024.1
20181022194534 66 128 0.0 3.0 0.00 0.00 0.00 35 1024.2
20181022193043 65 104 0.0 1.0 0.00 0.00 0.00 36 1024.1
20181022191629 65 188 0.0 2.0 0.00 0.00 0.00 35 1024.3
20181022190122 65 114 0.0 4.0 0.00 0.00 0.00 36 1024.6
20181022184542 64 187 0.0 1.0 0.00 0.00 0.00 38 1024.7
20181022183039 64 109 0.0 5.0 0.00 0.00 0.00 40 1024.9
20181022181559 63 161 0.0 3.0 0.00 0.00 0.00 42 1024.9
20181022180206 63 347 0.0 2.0 0.00 0.00 0.00 44 1025.3
20181022174703 63 108 0.0 2.0 0.00 0.00 0.00 42 1025.7
20181022173119 62 224 0.0 3.0 0.00 0.00 0.00 46 1026.2
20181022171605 62 84 0.0 4.0 0.00 0.00 0.00 47 1026.7
20181022170054 61 107 0.0 1.0 0.00 0.00 0.00 51 1027.0
20181022161635 59 96 0.0 3.0 0.00 0.00 0.00 56 1027.5
20181022160047 57 133 0.0 4.0 0.00 0.00 0.00 61 1027.7
20181022154513 56 222 0.0 2.0 0.00 0.00 0.00 61 1027.9
20181022153011 55 140 0.0 3.0 0.00 0.00 0.00 64 1028.1
20181022151634 54 173 0.0 3.0 0.00 0.00 0.00 65 1028.2
20181022150110 53 105 0.0 1.0 0.00 0.00 0.00 67 1028.1
20181022144708 52 94 0.0 2.0 0.00 0.00 0.00 70 1028.2
20181022143117 50 131 0.0 1.0 0.00 0.00 0.00 75 1028.2
20181022141600 49 119 0.0 0.0 0.00 0.00 0.00 81 1028.1
20181022140039 47 119 0.0 1.0 0.00 0.00 0.00 85 1028.0
20181022134509 45 119 0.0 1.0 0.00 0.00 0.00 88 1027.7
20181022130346 41 119 0.0 0.0 0.00 0.00 0.00 92 1027.2
20181022124917 39 119 0.0 0.0 0.00 0.00 0.00 92 1027.2
20181022123556 39 119 0.0 0.0 0.00 0.00 0.00 92 1027.0
20181022121510 38 119 0.0 0.0 0.00 0.00 0.00 92 1026.7
20181022120134 38 119 0.0 0.0 0.00 0.00 0.00 92 1026.4
20181022114558 38 119 0.0 0.0 0.00 0.00 0.00 92 1026.2
20181022113113 38 119 0.0 0.0 0.00 0.00 0.00 92 1026.2
20181022111553 38 119 0.0 0.0 0.00 0.00 0.00 92 1025.9
20181022110034 37 119 0.0 0.0 0.00 0.00 0.00 92 1025.9
20181022103133 38 119 0.0 0.0 0.00 0.00 0.00 92 1025.5
20181022101716 38 119 0.0 0.0 0.00 0.00 0.00 92 1025.4
20181022100106 38 119 0.0 0.0 0.00 0.00 0.00 92 1025.2
20181022094623 38 119 0.0 0.0 0.00 0.00 0.00 92 1025.3
20181022091514 38 119 0.0 0.0 0.00 0.00 0.00 92 1024.8
20181022090009 38 119 0.0 0.0 0.00 0.00 0.00 91 1025.0
20181022084636 38 119 0.0 0.0 0.00 0.00 0.00 91 1025.0
20181022083117 39 119 0.0 0.0 0.00 0.00 0.00 91 1024.8
20181022081609 39 119 0.0 0.0 0.00 0.00 0.00 91 1024.7
20181022080112 39 119 0.0 0.0 0.00 0.00 0.00 91 1024.6
20181022074618 39 119 0.0 0.0 0.00 0.00 0.00 91 1024.6
20181022073245 39 119 0.0 0.0 0.00 0.00 0.00 91 1024.7
20181022071530 40 119 0.0 0.0 0.00 0.00 0.00 91 1024.5
20181022064526 40 119 0.0 0.0 0.00 0.00 0.00 91 1024.5
20181022063026 40 119 0.0 0.0 0.00 0.00 0.00 91 1024.6
20181022060213 41 119 0.0 0.0 0.00 0.00 0.00 90 1024.4
20181022054619 41 119 0.0 0.0 0.00 0.00 0.00 90 1024.4
20181022053009 41 119 0.0 0.0 0.00 0.00 0.00 90 1024.3
20181022051519 41 119 0.0 0.0 0.00 0.00 0.00 90 1024.5
20181022050107 42 119 0.0 0.0 0.00 0.00 0.00 90 1024.4
20181022044618 42 119 0.0 0.0 0.00 0.00 0.00 90 1024.6
20181022043137 42 119 0.0 0.0 0.00 0.00 0.00 89 1024.5
20181022041546 42 119 0.0 0.0 0.00 0.00 0.00 89 1024.5
20181022033106 43 119 0.0 0.0 0.00 0.00 0.00 88 1024.0
20181022031622 43 119 0.0 0.0 0.00 0.00 0.00 89 1023.9
20181022030156 43 119 0.0 0.0 0.00 0.00 0.00 89 1024.0
20181022024702 43 119 0.0 0.0 0.00 0.00 0.00 87 1023.9
20181022023119 44 119 0.0 0.0 0.00 0.00 0.00 87 1023.9
20181022021630 44 119 0.0 0.0 0.00 0.00 0.00 86 1023.9
20181022020106 44 119 0.0 0.0 0.00 0.00 0.00 85 1023.7
20181022014651 45 119 0.0 0.0 0.00 0.00 0.00 84 1023.6
20181022013106 45 119 0.0 0.0 0.00 0.00 0.00 83 1023.5
20181022011503 46 119 0.0 0.0 0.00 0.00 0.00 82 1023.3
20181022010131 46 119 0.0 0.0 0.00 0.00 0.00 81 1023.1
20181022004620 47 119 0.0 0.0 0.00 0.00 0.00 78 1023.1
20181022003141 48 119 0.0 0.0 0.00 0.00 0.00 75 1023.1
20181021234626 50 119 0.0 0.0 0.00 0.00 0.00 68 1022.7
20181021233058 51 119 0.0 0.0 0.00 0.00 0.00 63 1022.5
20181021231621 53 119 0.0 0.0 0.00 0.00 0.00 62 1022.2